sat.trackr.live / text

‹ back to catalog

STARLINK-35319

NORAD 65743 · 2025-216K

PAYLOAD ACTIVE UNKNOWN

§ Identity

Operator
Country
US
Launch date
2025-09-25
Launch site
AFETR
Launch vehicle
Mass (kg)
RCS (m²)

Purposes: comms

External: N2YO · Heavens-Above · Gunter

§ Orbital elements

Epoch: 2026-05-24T19:34:45.202080Z

Period
94.10 min
Inclination
53.1602°
Eccentricity
0.0000853
Mean motion
15.30213573 rev/d
Perigee alt
474.6 km
Apogee alt
475.8 km
Semi-major
6,853.3 km
B*
5.2153e-4
RAAN
338.9496°
Arg perigee
107.4156°
Mean anomaly
252.6938°
Rev number
3,825

§ Raw data

STARLINK-353191 65743U 25216K   26144.81580095  .00015125  00000+0  52153-3 0  99962 65743  53.1602 338.9496 0000853 107.4156 252.6938 15.30213573 38259

JSON: /api/v1/satellites/65743 · /tle

For live sub-satellite position, see the globe view (requires WebGL).

§ Visibility from observer

Set your observer location to see the next 7 days of passes ≥ 10°. The values pass through the URL so the page stays shareable.

No JS? Fill the form by hand. The geolocation button needs JavaScript.